Regional Weather Roundup
Issued by NWS

Home | Current Version | Previous Version | Graphics & Text | Print | Product List | Glossary Off
Versions: 1 2 3 4 5 6 7 8 9 10 11 12 13 14 15 16 17 18 19 20 21 22 23 24 25 26 27 28 29 30 31 32 33 34 35 36 37 38 39 40 41 42 43 44 45 46 47 48 49 50

000
ASUS43 KMPX 131310
RWRMN
WEATHER ROUNDUP FOR MINNESOTA
NATIONAL WEATHER SERVICE TWIN CITIES/CHANHASSEN MN
800 AM CDT SUN JUL 13 2014


NOTE: "FAIR" INDICATES FEW OR NO CLOUDS BELOW 12,000 FEET WITH NO
SIGNIFICANT WEATHER AND/OR OBSTRUCTIONS TO VISIBILITY. N/A MEANS
CURRENT SKY AND/OR WEATHER CONDITIONS ARE NOT AVAILABLE.

MNZ060>063-068>070-131400-
   Twin Cities Metro

CITY           SKY/WX    TMP DP  RH WIND       PRES   REMARKS
TWIN CITIES    MOSUNNY   65  58  78 NW7       29.98R
ST PAUL        SUNNY     64  58  80 NW8       29.98R
CRYSTAL        SUNNY     65  55  70 NW5       29.97R
BLAINE         SUNNY     64  59  82 NW3       29.97R
LAKEVILLE      SUNNY     64  59  82 NW6       29.98R
EDEN PRAIRIE   SUNNY     66  58  75 NW7       29.97R
SOUTH ST PAUL  SUNNY     65  58  77 NW7       29.97R
LAKE ELMO      FAIR      63  55  77 N6        29.98R
$$
MNZ001>005-007-008-013>017-022>024-027-028-131400-
   Northwest Minnesota

CITY           SKY/WX    TMP DP  RH WIND       PRES   REMARKS
BEMIDJI        MOSUNNY   55  53  91 W14       29.93S
HALLOCK        SUNNY     55  52  88 W9        29.92S
ROSEAU         SUNNY     59  52  77 W12G18    29.88S
WARROAD        SUNNY     57  52  82 W12G20    29.87S
THIEF RVR FALL SUNNY     55  52  88 W9        29.94R
CROOKSTON      SUNNY     55  52  88 NW12      29.96R
FOSSTON        SUNNY     57  54  88 W8        29.95S
DETROIT LAKES  SUNNY     59  55  88 W6        29.98S
MOORHEAD       SUNNY     63  55  77 W7        29.98S
PARK RAPIDS    MOSUNNY   56  55  97 W8        29.96S
$$
MNZ006-009>011-018-025>026-131400-
   North Central Minnesota

CITY           SKY/WX    TMP DP  RH WIND       PRES   REMARKS
BAUDETTE       MOSUNNY   58  50  75 W8        29.86S
FLAG ISLAND    SUNNY     57  48  72 W14G22    29.82S
INTL FALLS     CLOUDY    53  49  86 W9        29.84S
WASKISH        PTSUNNY   57  54  88 SW12      29.89F
BIG FORK       MOSUNNY   55  54  94 W5        29.90S
LONGVILLE      MOSUNNY   55  55 100 CALM      29.94S
GRAND RAPIDS   SUNNY     55  52  88 W6        29.92S
CRANE LAKE     MOSUNNY   52  50  93 SW5       29.86S
ORR            PTSUNNY   55  48  76 W8        29.85S
COOK           MOSUNNY   55  50  82 W6        29.88S
$$
MNZ012-019>021-037-131400-
   Northeast Minnesota

CITY           SKY/WX    TMP DP  RH WIND       PRES   REMARKS
DULUTH         SUNNY     58  49  72 W9        29.91S
ELY            SUNNY     55  48  76 W9        29.86S
HIBBING        SUNNY     56  52  86 VRB3      29.90S
EVELETH        SUNNY     54  50  87 SW7       29.90S
DULUTH HARBOR  SUNNY     61  52  72 W7        29.93R
TWO HARBORS    SUNNY     55  48  76 W5        29.89S
SILVER BAY     SUNNY     57  52  82 W5        29.87R
GRAND MARAIS     N/A     48  43  82 W7        29.83R
G MARAIS ARPRT SUNNY     55  45  67 W8        29.84S
$$
MNZ029>031-032-039>041-046>048-054>057-064-131400-
   West Central Minnesota

CITY           SKY/WX    TMP DP  RH WIND       PRES   REMARKS
FERGUS FALLS   MOSUNNY   57  55  94 W5        30.00S
WHEATON        SUNNY     61  55  82 W5        30.03R
MORRIS         SUNNY     61  57  88 W5        30.00S
ALEXANDRIA     SUNNY     60  56  86 W6        30.01R
ELBOW LAKE     FAIR      57  55  94 W5        30.01R
WADENA         MOSUNNY   57  55  94 W6        29.97S
GLENWOOD       SUNNY     61  55  82 SW3       30.01R
APPLETON       SUNNY     63  57  82 SW5       30.02R
BENSON         SUNNY     59  55  88 NW3       30.01S
ORTONVILLE     SUNNY     61  54  77 CALM      30.02R
MADISON        SUNNY     66  59  77 W3        30.02S
WILLMAR        FAIR      61  55  82 W5        30.03R
$$
MNZ033>034-036-042>043-049>051-058-059-131400-
   Central Minnesota

CITY           SKY/WX    TMP DP  RH WIND       PRES   REMARKS
ST CLOUD       SUNNY     62  54  74 NW6       29.98R
SAUK CENTRE    FAIR      59  56  91 SW5       30.00R
PAYNESVILLE    SUNNY     57  55  91 SW5       30.02R
AITKIN         MOSUNNY   59  54  82 CALM      29.94S
PINE RIVER     MOSUNNY   55  54  94 W3        29.99S
BRAINERD       PTSUNNY   63  52  67 W7        29.97R
STAPLES        SUNNY     57  55  94 W7        29.97S
LONG PRAIRIE   FAIR      59  54  82 SW3       30.00R
LITTLE FALLS   SUNNY     57  52  82 W6        29.98R
LITCHFIELD     SUNNY     63  57  82 NW8       30.01R
BUFFALO        SUNNY     62  54  74 W5        30.00R
MAPLE LAKE     SUNNY     63  57  81 NW6       30.00R
$$
MNZ037-044-045-052-053-131400-
   East Central Minnesota

CITY           SKY/WX    TMP DP  RH WIND       PRES   REMARKS
PRINCETON      SUNNY     63  55  77 W5        29.98R
MORA           SUNNY     59  52  77 W3        29.98R
CAMBRIDGE      SUNNY     63  52  67 NW3       29.96R
RUSH CITY      SUNNY     60  55  83 W3        29.96S
MOOSE LAKE     SUNNY     55  54  94 CALM      29.93R
HINCKLEY       FAIR      59  55  88 W5        29.96R
CLOQUET        SUNNY     57  52  82 W6        29.93R
MCGREGOR       MOSUNNY   55  54  94 SW5       29.95S
$$
MNZ071>073-080-081-089-090-097-098-131400-
   Southwest Minnesota

CITY           SKY/WX    TMP DP  RH WIND       PRES   REMARKS
MONTEVIDEO     SUNNY     64  61  88 NW5       30.03R
GRANITE FALLS  SUNNY     62  57  85 W5        30.04R
CANBY          SUNNY     64  57  79 W3        30.05R
MARSHALL       SUNNY     64  57  77 NW8       30.03R
REDWOOD FALLS  SUNNY     64  60  87 NW8       30.01R
OLIVIA         SUNNY     63  57  82 W7        30.01R
PIPESTONE      SUNNY     66  57  72 CALM      30.06R
WINDOM         SUNNY     66  61  82 NW7       30.04R
WORTHINGTON    SUNNY     66  63  88 NW3       30.06S
JACKSON        SUNNY     68  61  77 NW8       30.04R
TRACY          SUNNY     65  59  82 NW7       30.04R
SLAYTON        SUNNY     65  59  82 CALM      30.06R
$$
MNZ065>067-074>077-082>085-091>093-131400-
   South Central Minnesota

CITY           SKY/WX    TMP DP  RH WIND       PRES   REMARKS
MANKATO        SUNNY     66  57  72 NW7       30.00R
NEW ULM        SUNNY     64  61  88 NW5       30.00S
ST JAMES       SUNNY     66  63  88 NW7       30.02R
FAIRMONT       SUNNY     70  61  73 NW12      30.02R
GLENCOE        SUNNY     64  56  74 NW7       29.99R
FARIBAULT      SUNNY     70  59  68 NW6       29.99R
OWATONNA       SUNNY     66  63  88 NW9       29.98R
WASECA         SUNNY     63  59  88 NW8       30.01R
ALBERT LEA     PTSUNNY   68  64  88 W7        29.99R
$$
MNZ078>079-086>088-094>096-131400-
   Southeast Minnesota

CITY           SKY/WX    TMP DP  RH WIND       PRES   REMARKS
ROCHESTER      CLOUDY    66  63  90 NW12      29.98S
RED WING       SUNNY     66  57  72 N5        29.96R
STANTON        SUNNY     66  58  75 N6        29.96R
DODGE CENTER   CLOUDY    66  63  88 N10       29.98R
WINONA         PTSUNNY   70  64  83 NW9       29.93S
AUSTIN         MOSUNNY   68  64  88 W10       29.97S
PRESTON        SUNNY     68  65  92 W12       29.98R
$$
ABBREVIATIONS USED IN REMARKS
   TC - TEMPERATURES IN CELSIUS
  WCI - WIND CHILL INDEX
   HX - HEAT INDEX
  VSB - VISIBILITY
$$


USA.gov is the U.S. government's official web portal to all federal, state and local government web resources and services.